Location: Chamerau
(49.1969°N, 12.7525°E)
Time: 04:38:39
(UTC+00:00)

Iridium 4 Rocket - Pass Details

Date: 18 September 2020
Orbit: 584 x 905 km, 86.9° (Epoch: 29 October)

Event Time Altitude Azimuth Distance (km) Brightness Sun altitude
Rises 17:41:13 0° 174° (S) 3,063 6.5 -5.1°
Reaches altitude 10° 17:43:24 10° 172° (S) 2,197 5.7 -5.5°
Maximum altitude 17:48:18 71° 89° (E) 815 3.5 -6.3°
Drops below altitude 10° 17:53:42 10° 7° (N) 2,425 6.2 -7.1°
Sets 17:56:12 0° 5° (N) 3,407 6.9 -7.5°
